TimeIST,TemperatureF,Dew PointF,Humidity,Sea Level PressureIn,VisibilityMPH,Wind Direction,Wind SpeedMPH,Gust SpeedMPH,PrecipitationIn,Events,Conditions,WindDirDegrees,DateUTC
12:00 AM,62.6,50.0,63,30.24,-9999.0,NE,5.8,-,N/A,,Clear,40,2013-06-07 23:00:00
12:30 AM,57.2,50.0,77,30.24,-9999.0,NNE,6.9,-,N/A,,Clear,20,2013-06-07 23:30:00
1:00 AM,56,49,70,30.26,16,NNE,6.7,,,,,30,2013-06-08 00:00:00
1:00 AM,55.4,50.0,82,30.24,-9999.0,NNE,5.8,-,N/A,,Clear,30,2013-06-08 00:00:00
1:30 AM,57.2,50.0,77,30.24,-9999.0,NE,4.6,-,N/A,,Clear,40,2013-06-08 00:30:00
2:00 AM,53.6,48.2,82,30.24,-9999.0,North,2.3,-,N/A,,Clear,350,2013-06-08 01:00:00
2:30 AM,51.8,50.0,94,30.24,-9999.0,WNW,3.5,-,N/A,,Clear,300,2013-06-08 01:30:00
3:00 AM,51.8,48.2,88,30.24,-9999.0,NW,5.8,-,N/A,,Clear,320,2013-06-08 02:00:00
3:30 AM,51.8,48.2,88,30.24,-9999.0,NNW,3.5,-,N/A,,Clear,330,2013-06-08 02:30:00
4:00 AM,51.8,48.2,88,30.24,-9999.0,NNW,3.5,-,N/A,,Clear,340,2013-06-08 03:00:00
4:30 AM,50.0,48.2,94,30.24,-9999.0,NNW,1.2,-,N/A,,Clear,340,2013-06-08 03:30:00
5:00 AM,50.0,46.4,87,30.24,-9999.0,NNE,2.3,-,N/A,,Clear,20,2013-06-08 04:00:00
5:30 AM,48.2,46.4,93,30.24,-9999.0,North,1.2,-,N/A,,Clear,10,2013-06-08 04:30:00
6:00 AM,48.2,46.4,93,30.24,-9999.0,WNW,2.3,-,N/A,,Clear,300,2013-06-08 05:00:00
6:30 AM,50.0,46.4,87,30.24,-9999.0,West,3.5,-,N/A,,Clear,280,2013-06-08 05:30:00
7:00 AM,53,47,73,30.25,19,Calm,Calm,,,,Clear,,2013-06-08 06:00:00
7:00 AM,51.8,46.4,82,30.24,-9999.0,Calm,Calm,-,N/A,,Clear,0,2013-06-08 06:00:00
7:30 AM,55.4,48.2,77,30.24,-9999.0,Variable,2.3,-,N/A,,Clear,0,2013-06-08 06:30:00
8:00 AM,55.4,50.0,82,30.24,-9999.0,Calm,Calm,-,N/A,,Clear,0,2013-06-08 07:00:00
8:30 AM,57.2,50.0,77,30.24,-9999.0,Calm,Calm,-,N/A,,Clear,0,2013-06-08 07:30:00
9:00 AM,60.8,51.8,72,30.24,-9999.0,Variable,1.2,-,N/A,,Clear,0,2013-06-08 08:00:00
9:30 AM,62.6,51.8,68,30.21,-9999.0,Variable,2.3,-,N/A,,Clear,0,2013-06-08 08:30:00
10:00 AM,64.4,53.6,68,30.21,-9999.0,Variable,2.3,-,N/A,,Clear,0,2013-06-08 09:00:00
10:30 AM,66.2,55.4,68,30.21,-9999.0,NNW,3.5,-,N/A,,Clear,340,2013-06-08 09:30:00
11:00 AM,68.0,55.4,64,30.21,-9999.0,WNW,3.5,-,N/A,,Clear,300,2013-06-08 10:00:00
11:30 AM,68.0,53.6,60,30.21,-9999.0,NNE,3.5,-,N/A,,Scattered Clouds,20,2013-06-08 10:30:00
12:00 PM,69.8,55.4,60,30.21,6.2,SSE,4.6,-,N/A,,Scattered Clouds,160,2013-06-08 11:00:00
12:30 PM,69.8,55.4,60,30.18,6.2,South,5.8,-,N/A,,Scattered Clouds,190,2013-06-08 11:30:00
1:00 PM,71,53,43,30.20,25,South,4.5,,,,Scattered Clouds,180,2013-06-08 12:00:00
1:00 PM,69.8,53.6,56,30.18,6.2,North,-9999.0,-,N/A,,Scattered Clouds,0,2013-06-08 12:00:00
1:30 PM,71.6,51.8,50,30.18,6.2,SE,5.8,-,N/A,,Scattered Clouds,140,2013-06-08 12:30:00
2:00 PM,73.4,51.8,47,30.18,6.2,SSE,5.8,-,N/A,,Partly Cloudy,160,2013-06-08 13:00:00
2:30 PM,73.4,50.0,44,30.15,6.2,SE,3.5,-,N/A,,Partly Cloudy,130,2013-06-08 13:30:00
3:00 PM,75.2,51.8,44,30.15,6.2,East,2.3,-,N/A,,Scattered Clouds,100,2013-06-08 14:00:00
3:30 PM,73.4,51.8,47,30.15,6.2,WSW,4.6,-,N/A,,Partly Cloudy,250,2013-06-08 14:30:00
4:00 PM,73.4,51.8,47,30.12,6.2,WSW,9.2,-,N/A,,Scattered Clouds,250,2013-06-08 15:00:00
4:30 PM,75.2,51.8,44,30.12,6.2,WSW,6.9,-,N/A,,Partly Cloudy,250,2013-06-08 15:30:00
5:00 PM,75.2,50.0,41,30.12,6.2,West,2.3,-,N/A,,Partly Cloudy,280,2013-06-08 16:00:00
5:30 PM,75.2,50.0,41,30.09,6.2,SSW,4.6,-,N/A,,Partly Cloudy,200,2013-06-08 16:30:00
6:00 PM,75.2,50.0,41,30.09,6.2,ESE,3.5,-,N/A,,Partly Cloudy,120,2013-06-08 17:00:00
6:30 PM,75.2,50.0,41,30.09,6.2,SSW,2.3,-,N/A,,Partly Cloudy,200,2013-06-08 17:30:00
7:00 PM,76,51,31,30.10,25,WSW,4.5,,,,Scattered Clouds,250,2013-06-08 18:00:00
7:00 PM,75.2,51.8,44,30.09,6.2,WSW,4.6,-,N/A,,Partly Cloudy,250,2013-06-08 18:00:00
7:30 PM,75.2,51.8,44,30.09,6.2,West,4.6,-,N/A,,Partly Cloudy,270,2013-06-08 18:30:00
8:00 PM,75.2,51.8,44,30.09,6.2,WNW,3.5,-,N/A,,Partly Cloudy,290,2013-06-08 19:00:00
8:30 PM,75.2,50.0,41,30.06,6.2,West,2.3,-,N/A,,Partly Cloudy,280,2013-06-08 19:30:00
9:00 PM,69.8,53.6,56,30.06,6.2,NW,5.8,-,N/A,,Partly Cloudy,310,2013-06-08 20:00:00
9:30 PM,66.2,55.4,68,30.06,6.2,NW,6.9,-,N/A,,Partly Cloudy,310,2013-06-08 20:30:00
10:00 PM,64.4,53.6,68,30.06,6.2,WNW,6.9,-,N/A,,Partly Cloudy,300,2013-06-08 21:00:00
10:30 PM,62.6,51.8,68,30.06,-9999.0,NW,6.9,-,N/A,,Clear,310,2013-06-08 21:30:00
11:00 PM,60.8,53.6,77,30.09,6.2,SW,6.9,-,N/A,,Partly Cloudy,230,2013-06-08 22:00:00
11:30 PM,59.0,51.8,77,30.09,-9999.0,SW,10.4,-,N/A,,Clear,230,2013-06-08 22:30:00